Flag for Germany Weather past 2 weeks in Kamp-Lintfort, North Rhine-Westphalia, Germany

Now
66 °F

Partly sunny.


Feels Like: 66 °F
Forecast: 54 / 67 °F
Wind: 3 mph from Southwest

Location: Duesseldorf

Current Time: Sep 30, 2014 at 2:38:32 PM

Latest Report: Sep 30, 2014 at 2:00 PM


Visibility: 13 mi

Pressure: 30.28 "Hg

Humidity: 73%

Dew point: 57 °F

Location of Kamp-LintfortLocation

Historic Weather in Kamp-Lintfort — Graph

°F

Kamp-Lintfort temperature yesterday

Maximum temperature yesterday: 72 °F (at 2:00 PM)
Minimum temperature yesterday: 60 °F (at 7:00 AM)
Average temperature yesterday: 64 °F

Past Weeks' High & Low Weather Summary

 TemperatureHumidityPressure
High76 °F (Sep 17, 5:00 PM)99% (Sep 25, 1:00 AM)30.40 "Hg (Sep 25, 1:00 AM)
Low43 °F (Sep 23, 5:00 AM)48% (Sep 17, 6:00 PM)29.83 "Hg (Sep 18, 8:00 PM)
Average61 °F80%30.07 "Hg
* Reported Sep 15 1:00 PM — Sep 30 1:00 PM, Kamp-Lintfort, Weather by CustomWeather, © 2014

Note: Actual official high and low records may vary slightly from our data, if they occured in-between our weather recording intervals... More about our weather records

Advertising

Kamp-Lintfort weather history for previous 24 hours

 ConditionsComfort  
Time TempWeatherWind HumidityBarometerVisibility
1:00 PM
Sep 30
65 °FOvercast.5 mph75%30.28 "Hg11 mi
12:00 PM66 °FPartly sunny.5 mph77%30.27 "Hg9 mi
10:00 AM62 °FOvercast.3 mph91%30.26 "Hg6 mi
9:00 AM62 °FOvercast.3 mph90%30.25 "Hg7 mi
8:00 AM61 °FOvercast.3 mph90%30.24 "Hg7 mi
7:00 AM60 °FOvercast.3 mph93%30.23 "Hg9 mi
6:00 AM59 °FOvercast.3 mph96%30.22 "Hg12 mi
4:00 AM58 °FPassing clouds.3 mph96%30.22 "Hg12 mi
3:00 AM58 °FPassing clouds.3 mph95%30.22 "Hg9 mi
2:00 AM59 °FOvercast.3 mph95%30.22 "Hg9 mi
1:00 AM59 °FPassing clouds.5 mph95%30.22 "Hg9 mi
12:00 AM60 °FLow clouds.3 mph95%30.22 "Hg6 mi
11:00 PM
Sep 29
61 °FLow clouds.2 mph95%30.22 "Hg5 mi
10:00 PM61 °FLight rain. Overcast.5 mph94%30.22 "Hg9 mi
9:00 PM61 °FLight rain. Overcast.3 mph93%30.22 "Hg9 mi
8:00 PM63 °FLight rain. Overcast.5 mph87%30.22 "Hg11 mi
7:00 PM65 °FLight rain. Overcast.5 mph80%30.22 "Hg16 mi
6:00 PM67 °FOvercast.2 mph74%30.21 "Hg19 mi
5:00 PM68 °FOvercast.5 mph71%30.21 "Hg22 mi
4:00 PM69 °FOvercast.6 mph66%30.20 "Hg22 mi
3:00 PM71 °FOvercast.8 mph64%30.19 "Hg19 mi
2:00 PM72 °FOvercast.6 mph65%30.19 "Hg17 mi
Weather by CustomWeather, © 2014

See weather overviewHow to use our weather pages